Time,TemperatureF,DewpointF,PressureIn,WindDirection,WindDirectionDegrees,WindSpeedMPH,WindSpeedGustMPH,Humidity,HourlyPrecipIn,Conditions,Clouds,dailyrainin,SoftwareType,DateUTC
2013-02-07 00:00:00,29.0,19.1,30.15,SE,124,2.0,5.0,66,0.00,,,0.18,Wunderground v.1.15,2013-02-07 05:00:00,
2013-02-07 00:05:00,29.0,19.1,30.15,SSE,158,3.0,5.0,66,0.00,,,0.00,Wunderground v.1.15,2013-02-07 05:05:00,
2013-02-07 00:15:00,29.0,19.1,30.15,SSE,157,3.0,7.0,66,0.00,,,0.00,Wunderground v.1.15,2013-02-07 05:15:00,
2013-02-07 00:20:00,28.8,19.2,30.15,SE,140,3.0,3.0,67,0.00,,,0.00,Wunderground v.1.15,2013-02-07 05:20:00,
2013-02-07 00:25:00,28.8,19.2,30.15,ESE,123,3.0,8.0,67,0.00,,,0.01,Wunderground v.1.15,2013-02-07 05:25:00,
2013-02-07 00:30:00,28.8,19.2,30.14,East,97,3.0,3.0,67,0.00,,,0.01,Wunderground v.1.15,2013-02-07 05:30:00,
2013-02-07 00:35:00,28.8,19.2,30.14,SSE,157,3.0,3.0,67,0.00,,,0.01,Wunderground v.1.15,2013-02-07 05:35:00,
2013-02-07 00:45:00,28.8,19.2,30.15,East,82,2.0,3.0,67,0.00,,,0.01,Wunderground v.1.15,2013-02-07 05:45:00,
2013-02-07 00:50:00,28.7,19.1,30.15,SE,140,2.0,2.0,67,0.00,,,0.01,Wunderground v.1.15,2013-02-07 05:50:00,
2013-02-07 00:55:00,28.8,19.2,30.15,SE,126,2.0,4.0,67,0.00,,,0.01,Wunderground v.1.15,2013-02-07 05:55:00,
2013-02-07 01:00:00,28.8,19.2,30.16,SSE,150,3.0,3.0,67,0.00,,,0.01,Wunderground v.1.15,2013-02-07 06:00:00,
2013-02-07 01:05:00,28.8,19.2,30.16,SE,130,2.0,4.0,67,0.00,,,0.01,Wunderground v.1.15,2013-02-07 06:05:00,
2013-02-07 01:15:00,28.8,18.9,30.16,SE,128,2.0,3.0,66,0.00,,,0.01,Wunderground v.1.15,2013-02-07 06:15:00,
2013-02-07 01:20:00,28.8,19.2,30.16,SSE,157,3.0,4.0,67,0.00,,,0.01,Wunderground v.1.15,2013-02-07 06:20:00,
2013-02-07 01:25:00,29.0,19.4,30.16,South,172,2.0,4.0,67,0.00,,,0.01,Wunderground v.1.15,2013-02-07 06:25:00,
2013-02-07 01:30:00,29.0,19.4,30.16,SE,133,2.0,2.0,67,0.00,,,0.01,Wunderground v.1.15,2013-02-07 06:30:00,
2013-02-07 01:40:00,28.8,19.2,30.16,SE,130,2.0,2.0,67,0.00,,,0.01,Wunderground v.1.15,2013-02-07 06:40:00,
2013-02-07 01:45:00,28.8,19.2,30.16,SE,130,2.0,3.0,67,0.00,,,0.01,Wunderground v.1.15,2013-02-07 06:45:00,
2013-02-07 01:50:00,28.8,19.2,30.16,SSE,150,2.0,2.0,67,0.00,,,0.01,Wunderground v.1.15,2013-02-07 06:50:00,
2013-02-07 01:55:00,28.8,19.2,30.16,SE,143,2.0,2.0,67,0.00,,,0.01,Wunderground v.1.15,2013-02-07 06:55:00,
2013-02-07 02:05:00,28.8,19.6,30.16,SSE,168,2.0,3.0,68,0.00,,,0.01,Wunderground v.1.15,2013-02-07 07:05:00,
2013-02-07 02:15:00,28.8,19.2,30.15,SE,130,3.0,5.0,67,0.00,,,0.01,Wunderground v.1.15,2013-02-07 07:15:00,
2013-02-07 02:20:00,28.8,19.2,30.15,SE,136,3.0,3.0,67,0.00,,,0.01,Wunderground v.1.15,2013-02-07 07:20:00,
2013-02-07 02:25:00,28.8,19.6,30.15,SSE,164,3.0,3.0,68,0.00,,,0.01,Wunderground v.1.15,2013-02-07 07:25:00,
2013-02-07 02:30:00,28.8,19.6,30.14,ESE,104,2.0,2.0,68,0.00,,,0.01,Wunderground v.1.15,2013-02-07 07:30:00,
2013-02-07 02:40:00,28.8,19.2,30.14,SE,136,2.0,2.0,67,0.00,,,0.01,Wunderground v.1.15,2013-02-07 07:40:00,
2013-02-07 02:45:00,28.8,19.6,30.15,SSE,147,2.0,2.0,68,0.00,,,0.01,Wunderground v.1.15,2013-02-07 07:45:00,
2013-02-07 02:55:00,28.7,19.8,30.15,South,181,2.0,2.0,69,0.00,,,0.01,Wunderground v.1.15,2013-02-07 07:55:00,
2013-02-07 03:00:00,28.7,19.8,30.14,SE,133,2.0,3.0,69,0.00,,,0.01,Wunderground v.1.15,2013-02-07 08:00:00,
2013-02-07 03:05:00,28.5,19.6,30.14,SE,143,2.0,3.0,69,0.00,,,0.01,Wunderground v.1.15,2013-02-07 08:05:00,
2013-02-07 03:15:00,28.5,19.6,30.13,SE,140,4.0,7.0,69,0.00,,,0.01,Wunderground v.1.15,2013-02-07 08:15:00,
2013-02-07 03:25:00,28.4,19.2,30.13,SE,140,4.0,5.0,68,0.00,,,0.01,Wunderground v.1.15,2013-02-07 08:25:00,
2013-02-07 03:30:00,28.4,19.2,30.13,SE,127,4.0,4.0,68,0.00,,,0.01,Wunderground v.1.15,2013-02-07 08:30:00,
2013-02-07 03:35:00,28.4,19.2,30.13,East,95,3.0,4.0,68,0.00,,,0.01,Wunderground v.1.15,2013-02-07 08:35:00,
2013-02-07 03:40:00,28.4,19.2,30.13,SE,133,2.0,4.0,68,0.00,,,0.01,Wunderground v.1.15,2013-02-07 08:40:00,
2013-02-07 03:50:00,28.4,19.2,30.13,SSE,151,3.0,3.0,68,0.00,,,0.01,Wunderground v.1.15,2013-02-07 08:50:00,
2013-02-07 03:55:00,28.2,19.0,30.13,SSE,148,2.0,3.0,68,0.00,,,0.01,Wunderground v.1.15,2013-02-07 08:55:00,
2013-02-07 04:05:00,28.2,19.3,30.13,East,85,3.0,5.0,69,0.00,,,0.01,Wunderground v.1.15,2013-02-07 09:05:00,
2013-02-07 04:15:00,28.1,19.2,30.12,ESE,113,1.0,3.0,69,0.00,,,0.01,Wunderground v.1.15,2013-02-07 09:15:00,
2013-02-07 04:20:00,28.1,19.2,30.12,East,99,2.0,2.0,69,0.00,,,0.01,Wunderground v.1.15,2013-02-07 09:20:00,
2013-02-07 04:25:00,28.1,19.2,30.12,SSE,148,2.0,3.0,69,0.00,,,0.01,Wunderground v.1.15,2013-02-07 09:25:00,
2013-02-07 04:30:00,27.9,19.0,30.11,ESE,116,3.0,3.0,69,0.00,,,0.01,Wunderground v.1.15,2013-02-07 09:30:00,
2013-02-07 04:40:00,27.9,19.0,30.11,SE,143,2.0,2.0,69,0.00,,,0.01,Wunderground v.1.15,2013-02-07 09:40:00,
2013-02-07 04:45:00,27.9,19.0,30.12,SE,126,2.0,4.0,69,0.00,,,0.01,Wunderground v.1.15,2013-02-07 09:45:00,
2013-02-07 04:50:00,27.8,18.9,30.12,SE,144,2.0,2.0,69,0.00,,,0.01,Wunderground v.1.15,2013-02-07 09:50:00,
2013-02-07 04:55:00,27.8,18.9,30.12,ESE,119,1.0,2.0,69,0.00,,,0.01,Wunderground v.1.15,2013-02-07 09:55:00,
2013-02-07 05:05:00,27.6,19.1,30.12,SE,140,1.0,2.0,70,0.00,,,0.01,Wunderground v.1.15,2013-02-07 10:05:00,
2013-02-07 05:15:00,27.5,19.0,30.12,SE,136,1.0,2.0,70,0.00,,,0.01,Wunderground v.1.15,2013-02-07 10:15:00,
2013-02-07 05:20:00,27.5,19.0,30.12,ESE,109,1.0,3.0,70,0.00,,,0.01,Wunderground v.1.15,2013-02-07 10:20:00,
2013-02-07 05:25:00,27.5,19.0,30.12,ESE,116,2.0,3.0,70,0.00,,,0.01,Wunderground v.1.15,2013-02-07 10:25:00,
2013-02-07 05:30:00,27.5,19.0,30.12,SSE,150,2.0,2.0,70,0.00,,,0.01,Wunderground v.1.15,2013-02-07 10:30:00,
2013-02-07 05:40:00,27.5,19.0,30.12,SE,140,3.0,3.0,70,0.00,,,0.01,Wunderground v.1.15,2013-02-07 10:40:00,
2013-02-07 05:45:00,27.5,19.0,30.11,SSE,158,3.0,3.0,70,0.00,,,0.01,Wunderground v.1.15,2013-02-07 10:45:00,
2013-02-07 05:55:00,27.5,19.0,30.11,SSE,158,3.0,3.0,70,0.00,,,0.01,Wunderground v.1.15,2013-02-07 10:55:00,
2013-02-07 06:00:00,27.5,19.0,30.10,SSE,161,3.0,3.0,70,0.00,,,0.01,Wunderground v.1.15,2013-02-07 11:00:00,
2013-02-07 06:05:00,27.6,19.1,30.10,SSE,165,4.0,4.0,70,0.00,,,0.01,Wunderground v.1.15,2013-02-07 11:05:00,
2013-02-07 06:15:00,27.5,19.0,30.10,SSE,152,3.0,5.0,70,0.00,,,0.01,Wunderground v.1.15,2013-02-07 11:15:00,
2013-02-07 06:25:00,27.6,19.1,30.10,SSE,154,3.0,6.0,70,0.00,,,0.01,Wunderground v.1.15,2013-02-07 11:25:00,
2013-02-07 06:30:00,27.6,19.1,30.10,SSE,161,2.0,2.0,70,0.00,,,0.01,Wunderground v.1.15,2013-02-07 11:30:00,
2013-02-07 06:35:00,27.6,19.1,30.10,SSE,165,2.0,2.0,70,0.00,,,0.01,Wunderground v.1.15,2013-02-07 11:35:00,
2013-02-07 06:40:00,27.8,19.3,30.10,SSE,148,3.0,3.0,70,0.00,,,0.01,Wunderground v.1.15,2013-02-07 11:40:00,
2013-02-07 06:50:00,27.8,19.3,30.09,SSE,167,3.0,3.0,70,0.00,,,0.01,Wunderground v.1.15,2013-02-07 11:50:00,
2013-02-07 06:55:00,27.8,19.3,30.09,SSE,147,4.0,4.0,70,0.00,,,0.01,Wunderground v.1.15,2013-02-07 11:55:00,
2013-02-07 07:00:00,27.9,19.4,30.09,SE,144,4.0,4.0,70,0.00,,,0.01,Wunderground v.1.15,2013-02-07 12:00:00,
2013-02-07 07:05:00,27.9,19.4,30.09,SSE,151,3.0,4.0,70,0.00,,,0.01,Wunderground v.1.15,2013-02-07 12:05:00,
2013-02-07 07:15:00,28.1,19.6,30.10,SSE,164,3.0,5.0,70,0.00,,,0.01,Wunderground v.1.15,2013-02-07 12:15:00,
2013-02-07 07:20:00,28.2,19.7,30.10,SE,127,2.0,2.0,70,0.00,,,0.01,Wunderground v.1.15,2013-02-07 12:20:00,
2013-02-07 07:25:00,28.4,19.9,30.10,SSW,198,2.0,3.0,70,0.00,,,0.01,Wunderground v.1.15,2013-02-07 12:25:00,
2013-02-07 07:30:00,28.4,19.9,30.10,South,175,3.0,3.0,70,0.00,,,0.01,Wunderground v.1.15,2013-02-07 12:30:00,
2013-02-07 07:40:00,28.5,20.0,30.10,SSE,158,3.0,3.0,70,0.00,,,0.01,Wunderground v.1.15,2013-02-07 12:40:00,
2013-02-07 07:45:00,28.5,20.0,30.09,South,186,4.0,4.0,70,0.00,,,0.01,Wunderground v.1.15,2013-02-07 12:45:00,
2013-02-07 07:50:00,28.7,20.1,30.09,SE,141,4.0,4.0,70,0.00,,,0.01,Wunderground v.1.15,2013-02-07 12:50:00,
2013-02-07 07:55:00,28.7,20.1,30.09,SSE,157,4.0,4.0,70,0.00,,,0.01,Wunderground v.1.15,2013-02-07 12:55:00,
2013-02-07 08:05:00,28.7,20.1,30.10,ESE,121,2.0,4.0,70,0.00,,,0.01,Wunderground v.1.15,2013-02-07 13:05:00,
2013-02-07 08:15:00,28.8,20.2,30.10,South,188,3.0,3.0,70,0.00,,,0.01,Wunderground v.1.15,2013-02-07 13:15:00,
2013-02-07 08:20:00,28.8,20.2,30.10,SSE,158,3.0,6.0,70,0.00,,,0.01,Wunderground v.1.15,2013-02-07 13:20:00,
2013-02-07 08:25:00,29.0,20.4,30.10,SSE,151,3.0,6.0,70,0.00,,,0.01,Wunderground v.1.15,2013-02-07 13:25:00,
2013-02-07 08:30:00,29.0,20.4,30.10,SSE,148,4.0,4.0,70,0.00,,,0.01,Wunderground v.1.15,2013-02-07 13:30:00,
2013-02-07 08:35:00,29.0,20.4,30.10,SSE,148,4.0,4.0,70,0.00,,,0.01,Wunderground v.1.15,2013-02-07 13:35:00,
2013-02-07 08:45:00,29.0,20.4,30.09,SE,134,3.0,7.0,70,0.00,,,0.01,Wunderground v.1.15,2013-02-07 13:45:00,
2013-02-07 08:50:00,29.0,20.4,30.09,South,171,4.0,4.0,70,0.00,,,0.01,Wunderground v.1.15,2013-02-07 13:50:00,
2013-02-07 09:00:00,29.1,20.5,30.09,SSE,160,3.0,6.0,70,0.00,,,0.01,Wunderground v.1.15,2013-02-07 14:00:00,
2013-02-07 09:05:00,29.1,20.5,30.09,ESE,107,3.0,6.0,70,0.00,,,0.01,Wunderground v.1.15,2013-02-07 14:05:00,
2013-02-07 09:15:00,29.3,20.7,30.09,ESE,109,2.0,4.0,70,0.00,,,0.01,Wunderground v.1.15,2013-02-07 14:15:00,
2013-02-07 09:20:00,29.3,20.7,30.09,SSE,150,3.0,3.0,70,0.00,,,0.01,Wunderground v.1.15,2013-02-07 14:20:00,
2013-02-07 09:25:00,29.4,20.8,30.09,SSE,157,3.0,3.0,70,0.00,,,0.01,Wunderground v.1.15,2013-02-07 14:25:00,
2013-02-07 09:35:00,29.4,20.8,30.08,ESE,120,3.0,3.0,70,0.00,,,0.01,Wunderground v.1.15,2013-02-07 14:35:00,
2013-02-07 09:40:00,29.4,20.8,30.08,SSE,148,4.0,6.0,70,0.00,,,0.01,Wunderground v.1.15,2013-02-07 14:40:00,
2013-02-07 09:45:00,29.4,20.8,30.08,South,169,4.0,6.0,70,0.00,,,0.01,Wunderground v.1.15,2013-02-07 14:45:00,
2013-02-07 09:50:00,29.5,20.9,30.08,South,174,5.0,5.0,70,0.00,,,0.01,Wunderground v.1.15,2013-02-07 14:50:00,
2013-02-07 10:00:00,29.5,21.3,30.07,SSE,150,4.0,6.0,71,0.00,,,0.01,Wunderground v.1.15,2013-02-07 15:00:00,
2013-02-07 10:05:00,29.5,21.3,30.07,SE,133,5.0,6.0,71,0.00,,,0.01,Wunderground v.1.15,2013-02-07 15:05:00,
2013-02-07 10:15:00,29.3,22.0,30.07,SE,134,6.0,8.0,74,0.00,,,0.01,Wunderground v.1.15,2013-02-07 15:15:00,
2013-02-07 10:20:00,29.0,22.7,30.07,SE,141,5.0,5.0,77,0.00,,,0.01,Wunderground v.1.15,2013-02-07 15:20:00,
2013-02-07 10:25:00,28.8,23.1,30.07,East,93,5.0,5.0,79,0.00,,,0.01,Wunderground v.1.15,2013-02-07 15:25:00,
2013-02-07 10:35:00,28.5,23.7,30.05,SSE,150,5.0,6.0,82,0.00,,,0.01,Wunderground v.1.15,2013-02-07 15:35:00,
2013-02-07 10:40:00,28.4,23.9,30.05,SE,130,5.0,5.0,83,0.00,,,0.01,Wunderground v.1.15,2013-02-07 15:40:00,
2013-02-07 10:45:00,28.5,24.3,30.06,SE,124,4.0,5.0,84,0.00,,,0.01,Wunderground v.1.15,2013-02-07 15:45:00,
2013-02-07 10:55:00,28.5,24.6,30.06,ESE,117,3.0,5.0,85,0.00,,,0.01,Wunderground v.1.15,2013-02-07 15:55:00,
2013-02-07 11:00:00,28.5,24.8,30.05,SSE,151,3.0,7.0,86,0.00,,,0.01,Wunderground v.1.15,2013-02-07 16:00:00,
2013-02-07 11:05:00,28.5,24.8,30.05,ESE,117,3.0,7.0,86,0.00,,,0.01,Wunderground v.1.15,2013-02-07 16:05:00,
2013-02-07 11:15:00,28.5,25.1,30.05,ESE,120,3.0,4.0,87,0.00,,,0.01,Wunderground v.1.15,2013-02-07 16:15:00,
2013-02-07 11:20:00,28.4,25.0,30.05,SE,144,3.0,11.0,87,0.00,,,0.01,Wunderground v.1.15,2013-02-07 16:20:00,
2013-02-07 11:30:00,28.5,25.4,30.05,SE,136,4.0,4.0,88,0.00,,,0.01,Wunderground v.1.15,2013-02-07 16:30:00,
2013-02-07 11:35:00,28.5,25.4,30.05,SSE,152,4.0,4.0,88,0.00,,,0.01,Wunderground v.1.15,2013-02-07 16:35:00,
2013-02-07 11:40:00,28.5,25.4,30.05,SE,126,4.0,5.0,88,0.00,,,0.01,Wunderground v.1.15,2013-02-07 16:40:00,
2013-02-07 11:45:00,28.5,25.4,30.05,SSE,147,4.0,5.0,88,0.00,,,0.01,Wunderground v.1.15,2013-02-07 16:45:00,
2013-02-07 11:55:00,28.7,25.9,30.05,SE,124,4.0,5.0,89,0.00,,,0.01,Wunderground v.1.15,2013-02-07 16:55:00,
2013-02-07 12:00:00,28.7,25.9,30.04,SE,128,4.0,9.0,89,0.00,,,0.01,Wunderground v.1.15,2013-02-07 17:00:00,
2013-02-07 12:05:00,28.7,25.9,30.04,East,86,4.0,9.0,89,0.00,,,0.01,Wunderground v.1.15,2013-02-07 17:05:00,
2013-02-07 12:14:00,28.8,26.0,30.03,ESE,117,4.0,4.0,89,0.00,,,0.01,Wunderground v.1.15,2013-02-07 17:14:00,
2013-02-07 12:20:00,28.8,26.0,30.03,SE,143,4.0,6.0,89,0.00,,,0.01,Wunderground v.1.15,2013-02-07 17:20:00,
2013-02-07 12:30:00,28.8,26.2,30.03,SE,138,4.0,4.0,90,0.00,,,0.01,Wunderground v.1.15,2013-02-07 17:30:00,
2013-02-07 12:35:00,29.0,26.4,30.03,SE,131,3.0,11.0,90,0.00,,,0.01,Wunderground v.1.15,2013-02-07 17:35:00,
2013-02-07 12:45:00,29.0,26.4,30.01,ESE,114,4.0,4.0,90,0.00,,,0.01,Wunderground v.1.15,2013-02-07 17:45:00,
2013-02-07 12:50:00,29.1,26.5,30.01,ESE,103,3.0,3.0,90,0.00,,,0.01,Wunderground v.1.15,2013-02-07 17:50:00,
2013-02-07 12:55:00,29.1,26.5,30.01,ESE,109,3.0,3.0,90,0.00,,,0.01,Wunderground v.1.15,2013-02-07 17:55:00,
2013-02-07 13:00:00,29.3,26.7,30.00,East,85,3.0,3.0,90,0.00,,,0.01,Wunderground v.1.15,2013-02-07 18:00:00,
2013-02-07 13:05:00,29.4,26.8,30.00,SE,143,2.0,6.0,90,0.00,,,0.01,Wunderground v.1.15,2013-02-07 18:05:00,
2013-02-07 13:15:00,29.3,26.7,29.99,ESE,117,3.0,6.0,90,0.00,,,0.01,Wunderground v.1.15,2013-02-07 18:15:00,
2013-02-07 13:25:00,29.4,26.8,29.99,SE,127,4.0,4.0,90,0.00,,,0.01,Wunderground v.1.15,2013-02-07 18:25:00,
2013-02-07 13:30:00,29.5,26.9,29.99,East,95,2.0,2.0,90,0.00,,,0.01,Wunderground v.1.15,2013-02-07 18:30:00,
2013-02-07 13:35:00,29.5,26.9,29.99,East,93,2.0,2.0,90,0.00,,,0.01,Wunderground v.1.15,2013-02-07 18:35:00,
2013-02-07 13:45:00,29.7,27.1,29.98,ESE,123,3.0,3.0,90,0.00,,,0.01,Wunderground v.1.15,2013-02-07 18:45:00,
2013-02-07 13:50:00,29.7,27.1,29.98,SE,131,2.0,5.0,90,0.00,,,0.01,Wunderground v.1.15,2013-02-07 18:50:00,
2013-02-07 13:55:00,29.7,27.1,29.98,ESE,110,3.0,5.0,90,0.00,,,0.01,Wunderground v.1.15,2013-02-07 18:55:00,
2013-02-07 14:05:00,29.7,27.1,29.97,East,95,3.0,5.0,90,0.00,,,0.01,Wunderground v.1.15,2013-02-07 19:05:00,
2013-02-07 14:15:00,29.8,27.5,29.97,ESE,109,3.0,3.0,91,0.00,,,0.01,Wunderground v.1.15,2013-02-07 19:15:00,
2013-02-07 14:25:00,30.1,27.8,29.97,ESE,119,2.0,3.0,91,0.00,,,0.01,Wunderground v.1.15,2013-02-07 19:25:00,
2013-02-07 14:30:00,30.1,27.8,29.96,SE,136,2.0,3.0,91,0.00,,,0.01,Wunderground v.1.15,2013-02-07 19:30:00,
2013-02-07 14:40:00,30.3,28.0,29.96,East,99,2.0,2.0,91,0.00,,,0.01,Wunderground v.1.15,2013-02-07 19:40:00,
2013-02-07 14:45:00,30.4,28.1,29.95,SE,127,2.0,2.0,91,0.00,,,0.01,Wunderground v.1.15,2013-02-07 19:45:00,
2013-02-07 14:50:00,30.4,28.1,29.95,SSE,155,2.0,3.0,91,0.00,,,0.01,Wunderground v.1.15,2013-02-07 19:50:00,
2013-02-07 14:55:00,30.6,28.3,29.95,ESE,114,2.0,3.0,91,0.00,,,0.01,Wunderground v.1.15,2013-02-07 19:55:00,
2013-02-07 15:05:00,30.7,28.4,29.95,East,97,2.0,3.0,91,0.00,,,0.01,Wunderground v.1.15,2013-02-07 20:05:00,
2013-02-07 15:15:00,30.9,28.6,29.94,East,90,1.0,2.0,91,0.00,,,0.01,Wunderground v.1.15,2013-02-07 20:15:00,
2013-02-07 15:20:00,31.0,28.7,29.94,NE,45,1.0,5.0,91,0.00,,,0.01,Wunderground v.1.15,2013-02-07 20:20:00,
2013-02-07 15:25:00,31.2,29.1,29.94,East,100,2.0,5.0,92,0.00,,,0.01,Wunderground v.1.15,2013-02-07 20:25:00,
2013-02-07 15:30:00,31.3,29.2,29.93,ESE,113,2.0,3.0,92,0.00,,,0.01,Wunderground v.1.15,2013-02-07 20:30:00,
2013-02-07 15:40:00,31.3,29.2,29.93,SE,126,2.0,2.0,92,0.00,,,0.01,Wunderground v.1.15,2013-02-07 20:40:00,
2013-02-07 15:45:00,31.5,29.4,29.93,ESE,112,2.0,2.0,92,0.00,,,0.01,Wunderground v.1.15,2013-02-07 20:45:00,
2013-02-07 15:50:00,31.5,29.4,29.93,ESE,110,1.0,1.0,92,0.00,,,0.01,Wunderground v.1.15,2013-02-07 20:50:00,
2013-02-07 15:55:00,31.5,29.4,29.93,East,82,1.0,1.0,92,0.00,,,0.01,Wunderground v.1.15,2013-02-07 20:55:00,
2013-02-07 16:05:00,31.6,29.5,29.92,East,96,1.0,2.0,92,0.00,,,0.01,Wunderground v.1.15,2013-02-07 21:05:00,
2013-02-07 16:15:00,31.6,29.5,29.92,SE,131,2.0,4.0,92,0.00,,,0.01,Wunderground v.1.15,2013-02-07 21:15:00,
2013-02-07 16:20:00,31.6,29.5,29.92,ESE,120,3.0,6.0,92,0.00,,,0.01,Wunderground v.1.15,2013-02-07 21:20:00,
2013-02-07 16:25:00,31.8,30.0,29.92,ESE,114,3.0,6.0,93,0.00,,,0.01,Wunderground v.1.15,2013-02-07 21:25:00,
2013-02-07 16:30:00,31.8,30.0,29.91,ESE,116,3.0,5.0,93,0.00,,,0.01,Wunderground v.1.15,2013-02-07 21:30:00,
2013-02-07 16:40:00,31.8,30.0,29.91,ESE,123,2.0,3.0,93,0.00,,,0.01,Wunderground v.1.15,2013-02-07 21:40:00,
2013-02-07 16:45:00,31.8,30.0,29.90,SE,138,3.0,4.0,93,0.00,,,0.01,Wunderground v.1.15,2013-02-07 21:45:00,
2013-02-07 16:50:00,31.6,29.8,29.90,East,99,4.0,4.0,93,0.00,,,0.01,Wunderground v.1.15,2013-02-07 21:50:00,
2013-02-07 16:55:00,31.6,29.8,29.90,East,79,4.0,4.0,93,0.00,,,0.01,Wunderground v.1.15,2013-02-07 21:55:00,
2013-02-07 17:05:00,31.6,29.8,29.89,ENE,76,2.0,2.0,93,0.00,,,0.01,Wunderground v.1.15,2013-02-07 22:05:00,
2013-02-07 17:15:00,31.5,29.7,29.88,NE,44,3.0,4.0,93,0.00,,,0.01,Wunderground v.1.15,2013-02-07 22:15:00,
2013-02-07 17:20:00,31.5,29.7,29.88,East,99,2.0,6.0,93,0.00,,,0.01,Wunderground v.1.15,2013-02-07 22:20:00,
2013-02-07 17:25:00,31.5,29.7,29.88,ESE,104,3.0,6.0,93,0.00,,,0.01,Wunderground v.1.15,2013-02-07 22:25:00,
2013-02-07 17:35:00,31.5,29.7,29.88,ENE,73,3.0,3.0,93,0.00,,,0.01,Wunderground v.1.15,2013-02-07 22:35:00,
2013-02-07 17:40:00,31.5,29.7,29.88,SE,127,4.0,4.0,93,0.00,,,0.01,Wunderground v.1.15,2013-02-07 22:40:00,
2013-02-07 17:45:00,31.5,29.7,29.88,ESE,110,3.0,5.0,93,0.00,,,0.01,Wunderground v.1.15,2013-02-07 22:45:00,
2013-02-07 17:55:00,31.6,29.8,29.88,East,96,3.0,3.0,93,0.00,,,0.01,Wunderground v.1.15,2013-02-07 22:55:00,
2013-02-07 18:00:00,31.6,29.5,29.87,ESE,110,3.0,3.0,92,0.00,,,0.01,Wunderground v.1.15,2013-02-07 23:00:00,
2013-02-07 18:05:00,31.6,29.5,29.87,ENE,61,2.0,3.0,92,0.00,,,0.01,Wunderground v.1.15,2013-02-07 23:05:00,
2013-02-07 18:15:00,31.6,29.5,29.87,ESE,102,2.0,5.0,92,0.00,,,0.01,Wunderground v.1.15,2013-02-07 23:15:00,
2013-02-07 18:20:00,31.8,29.7,29.87,SE,126,2.0,3.0,92,0.00,,,0.01,Wunderground v.1.15,2013-02-07 23:20:00,
2013-02-07 18:25:00,31.8,29.7,29.87,ESE,103,2.0,3.0,92,0.00,,,0.01,Wunderground v.1.15,2013-02-07 23:25:00,
2013-02-07 18:35:00,31.8,29.7,29.87,ENE,68,3.0,5.0,92,0.00,,,0.01,Wunderground v.1.15,2013-02-07 23:35:00,
2013-02-07 18:40:00,31.8,29.7,29.87,East,86,3.0,3.0,92,0.00,,,0.01,Wunderground v.1.15,2013-02-07 23:40:00,
2013-02-07 18:45:00,31.8,29.7,29.87,East,88,2.0,3.0,92,0.00,,,0.01,Wunderground v.1.15,2013-02-07 23:45:00,
2013-02-07 18:55:00,31.9,29.6,29.87,ENE,59,2.0,2.0,91,0.00,,,0.01,Wunderground v.1.15,2013-02-07 23:55:00,
2013-02-07 19:00:00,31.9,29.6,29.87,NE,42,2.0,3.0,91,0.00,,,0.01,Wunderground v.1.15,2013-02-08 00:00:00,
2013-02-07 19:05:00,31.9,29.6,29.87,SE,124,3.0,3.0,91,0.00,,,0.01,Wunderground v.1.15,2013-02-08 00:05:00,
2013-02-07 19:15:00,32.1,29.5,29.87,ESE,102,2.0,2.0,90,0.00,,,0.01,Wunderground v.1.15,2013-02-08 00:15:00,
2013-02-07 19:20:00,32.1,29.5,29.87,ESE,120,2.0,2.0,90,0.00,,,0.01,Wunderground v.1.15,2013-02-08 00:20:00,
2013-02-07 19:25:00,32.1,29.5,29.87,East,93,2.0,2.0,90,0.00,,,0.01,Wunderground v.1.15,2013-02-08 00:25:00,
2013-02-07 19:35:00,32.1,29.5,29.86,East,85,2.0,2.0,90,0.00,,,0.01,Wunderground v.1.15,2013-02-08 00:35:00,
2013-02-07 19:40:00,32.1,29.5,29.86,NE,48,3.0,3.0,90,0.00,,,0.01,Wunderground v.1.15,2013-02-08 00:40:00,
2013-02-07 19:45:00,32.1,29.5,29.86,NE,37,2.0,3.0,90,0.00,,,0.01,Wunderground v.1.15,2013-02-08 00:45:00,
2013-02-07 19:50:00,32.1,29.5,29.86,NE,55,2.0,2.0,90,0.00,,,0.01,Wunderground v.1.15,2013-02-08 00:50:00,
2013-02-07 20:00:00,31.9,29.3,29.86,East,79,2.0,2.0,90,0.00,,,0.01,Wunderground v.1.15,2013-02-08 01:00:00,
2013-02-07 20:05:00,31.9,29.3,29.86,SE,130,3.0,3.0,90,0.00,,,0.01,Wunderground v.1.15,2013-02-08 01:05:00,
2013-02-07 20:15:00,31.8,29.2,29.86,ENE,65,2.0,2.0,90,0.00,,,0.01,Wunderground v.1.15,2013-02-08 01:15:00,
2013-02-07 20:20:00,31.8,29.2,29.86,East,79,2.0,2.0,90,0.00,,,0.01,Wunderground v.1.15,2013-02-08 01:20:00,
2013-02-07 20:25:00,31.6,29.0,29.86,East,79,1.0,2.0,90,0.00,,,0.01,Wunderground v.1.15,2013-02-08 01:25:00,
2013-02-07 20:35:00,31.6,29.3,29.86,East,83,1.0,2.0,91,0.00,,,0.01,Wunderground v.1.15,2013-02-08 01:35:00,
2013-02-07 20:40:00,31.5,29.2,29.86,ENE,73,2.0,2.0,91,0.00,,,0.01,Wunderground v.1.15,2013-02-08 01:40:00,
2013-02-07 20:50:00,31.3,29.0,29.86,ENE,65,2.0,3.0,91,0.00,,,0.01,Wunderground v.1.15,2013-02-08 01:50:00,
2013-02-07 20:55:00,31.2,28.9,29.86,SE,124,2.0,3.0,91,0.00,,,0.01,Wunderground v.1.15,2013-02-08 01:55:00,
2013-02-07 21:00:00,31.2,28.9,29.86,ENE,69,2.0,2.0,91,0.00,,,0.01,Wunderground v.1.15,2013-02-08 02:00:00,
2013-02-07 21:05:00,31.0,28.7,29.86,NE,49,1.0,2.0,91,0.00,,,0.01,Wunderground v.1.15,2013-02-08 02:05:00,
2013-02-07 21:15:00,31.0,28.9,29.86,ESE,116,2.0,3.0,92,0.00,,,0.01,Wunderground v.1.15,2013-02-08 02:15:00,
2013-02-07 21:25:00,30.7,28.7,29.86,ENE,75,2.0,3.0,92,0.00,,,0.01,Wunderground v.1.15,2013-02-08 02:25:00,
2013-02-07 21:30:00,30.7,28.7,29.86,ENE,68,2.0,2.0,92,0.00,,,0.01,Wunderground v.1.15,2013-02-08 02:30:00,
2013-02-07 21:35:00,30.7,28.7,29.86,ENE,68,1.0,2.0,92,0.00,,,0.01,Wunderground v.1.15,2013-02-08 02:35:00,
2013-02-07 21:40:00,30.7,28.7,29.86,NE,52,1.0,1.0,92,0.00,,,0.01,Wunderground v.1.15,2013-02-08 02:40:00,
2013-02-07 21:50:00,30.6,28.6,29.86,East,80,2.0,2.0,92,0.00,,,0.01,Wunderground v.1.15,2013-02-08 02:50:00,
2013-02-07 21:55:00,30.6,28.6,29.86,ENE,64,2.0,2.0,92,0.00,,,0.01,Wunderground v.1.15,2013-02-08 02:55:00,
2013-02-07 22:00:00,30.6,28.6,29.86,NE,45,2.0,3.0,92,0.00,,,0.01,Wunderground v.1.15,2013-02-08 03:00:00,
2013-02-07 22:05:00,30.6,28.6,29.86,NE,54,2.0,7.0,92,0.00,,,0.01,Wunderground v.1.15,2013-02-08 03:05:00,
2013-02-07 22:15:00,30.4,28.4,29.85,NE,47,2.0,5.0,92,0.00,,,0.01,Wunderground v.1.15,2013-02-08 03:15:00,
2013-02-07 22:25:00,30.4,28.4,29.85,SE,126,2.0,5.0,92,0.00,,,0.01,Wunderground v.1.15,2013-02-08 03:25:00,
2013-02-07 22:30:00,30.3,28.3,29.85,North,4,2.0,2.0,92,0.00,,,0.01,Wunderground v.1.15,2013-02-08 03:30:00,
2013-02-07 22:35:00,30.3,28.3,29.85,NE,38,3.0,3.0,92,0.00,,,0.01,Wunderground v.1.15,2013-02-08 03:35:00,
2013-02-07 22:45:00,30.3,28.3,29.84,ENE,68,2.0,3.0,92,0.00,,,0.01,Wunderground v.1.15,2013-02-08 03:45:00,
2013-02-07 22:50:00,30.1,28.1,29.84,ENE,69,2.0,2.0,92,0.00,,,0.01,Wunderground v.1.15,2013-02-08 03:50:00,
2013-02-07 22:55:00,30.1,28.1,29.84,ENE,58,2.0,3.0,92,0.00,,,0.01,Wunderground v.1.15,2013-02-08 03:55:00,
2013-02-07 23:05:00,30.1,28.1,29.83,ESE,112,2.0,2.0,92,0.00,,,0.01,Wunderground v.1.15,2013-02-08 04:05:00,
2013-02-07 23:15:00,30.1,28.1,29.83,ENE,59,2.0,4.0,92,0.00,,,0.01,Wunderground v.1.15,2013-02-08 04:15:00,
2013-02-07 23:20:00,30.1,28.1,29.83,NNE,27,2.0,2.0,92,0.00,,,0.01,Wunderground v.1.15,2013-02-08 04:20:00,
2013-02-07 23:25:00,30.1,28.1,29.83,NE,38,1.0,2.0,92,0.00,,,0.01,Wunderground v.1.15,2013-02-08 04:25:00,
2013-02-07 23:30:00,30.1,28.1,29.83,NE,40,1.0,1.0,92,0.00,,,0.01,Wunderground v.1.15,2013-02-08 04:30:00,
2013-02-07 23:40:00,30.1,28.1,29.83,SSE,164,2.0,2.0,92,0.00,,,0.01,Wunderground v.1.15,2013-02-08 04:40:00,
2013-02-07 23:45:00,30.0,28.0,29.83,ENE,61,2.0,2.0,92,0.00,,,0.01,Wunderground v.1.15,2013-02-08 04:45:00,
2013-02-07 23:50:00,30.0,28.0,29.83,ESE,123,1.0,3.0,92,0.00,,,0.01,Wunderground v.1.15,2013-02-08 04:50:00,